COSMOS 2433 (720) (32275 NORAD) Tracking and Keplerian Element Data

This shows tracking and keplerian element data for the satellite.

Feedback or suggestion? Click here.




ElementValue
Catalog32275
NameCOSMOS 2433 (720)
Epoch Orbit8341
Epoch Day195.80620273
Epoch Year2018
RAAN52.4348
Inclination65.6996
Eccentricity0.0001103
Argument of Perigee293.2902
Mean Anonmoly278.5535
Mean Motion2.13104602
Decay Rate-3.1E-07
L11 32275U 07052A 18195.80620273 -.00000031 00000-0 10000-3 0 9994
L22 32275 65.6996 52.4348 0001103 293.2902 278.5535 2.13104602 83410

Live tracking and technical data element details for COSMOS 2433 (720) (NORAD 32275). COSMOS 2433 (720) can be tracked NOW for your location showing map with azimuth and elevation plus other details from your city location.

Track the satellite on the map from your city or location and see movement details for azimuth, elevation, latitude, longitude, range, height, and movement on the map or in text.







IsCatalogInMostPopularTable: catalog: 32275, numindb: 41
Update: records affected: 1



GetName: 32275 COSMOS 2433 (720)

Hit Count: updated at: Sun, 15 Jul 2018 23:04:43 GMT